FW7023 Weather Reports


time (UTC)temp
F
wind
direction
speed
knots
gust
knots
rain 1hr
in
rain 24hr
in
rain mn
in
humidity
%
barometer
mb
20260507155354 64 101 1.7 5.2 0.00 0.00 0.00 48 1015.4
20260507154851 63 137 0.9 1.7 0.00 0.00 0.00 49 1015.5
20260507154348 63 195 4.3 6.1 0.00 0.00 0.00 50 1015.4
20260507153845 63 239 2.6 4.3 0.00 0.00 0.00 49 1015.5
20260507153341 62 227 5.2 8.7 0.00 0.00 0.00 50 1015.6
20260507152838 62 149 1.7 1.7 0.00 0.00 0.00 51 1015.6
20260507152334 62 76 2.6 5.2 0.00 0.00 0.00 51 1015.7
20260507151831 62 31 0.9 1.7 0.00 0.00 0.00 51 1015.7
20260507151327 62 222 3.5 7.0 0.00 0.00 0.00 52 1015.9
20260507150824 61 15 1.7 4.3 0.00 0.00 0.00 53 1015.8
20260507150320 61 226 0.0 0.9 0.00 0.00 0.00 53 1015.9
20260507145817 60 139 0.9 0.9 0.00 0.00 0.00 55 1016.0
20260507145313 60 166 3.5 5.2 0.00 0.00 0.00 54 1015.8
20260507144811 60 218 2.6 4.3 0.00 0.00 0.00 55 1016.1
20260507144308 60 295 2.6 2.6 0.00 0.00 0.00 57 1015.9
20260507143804 59 207 2.6 2.6 0.00 0.00 0.00 57 1015.9
20260507143302 58 206 3.5 4.3 0.00 0.00 0.00 58 1015.9
20260507142757 58 189 3.5 5.2 0.00 0.00 0.00 59 1015.9
20260507142254 58 207 4.3 6.1 0.00 0.00 0.00 60 1016.0
20260507141750 57 192 0.9 1.7 0.00 0.00 0.00 62 1016.1
20260507141248 57 291 1.7 1.7 0.00 0.00 0.00 63 1016.2
20260507140743 56 171 0.0 0.9 0.00 0.00 0.00 63 1016.0
20260507140241 56 219 5.2 7.0 0.00 0.00 0.00 63 1016.3
20260507135738 55 171 0.9 0.9 0.00 0.00 0.00 66 1016.2
20260507135235 55 166 0.0 0.0 0.00 0.00 0.00 67 1016.0
20260507134731 54 148 0.9 1.7 0.00 0.00 0.00 67 1016.2
20260507134222 54 143 0.9 1.7 0.00 0.00 0.00 68 1016.2
20260507133718 53 167 0.9 0.9 0.00 0.00 0.00 68 1016.1
20260507133216 53 243 0.9 1.7 0.00 0.00 0.00 69 1015.9
20260507132713 52 194 2.6 2.6 0.00 0.00 0.00 69 1016.0
20260507132209 52 192 0.0 0.9 0.00 0.00 0.00 70 1016.1
20260507131706 51 169 0.0 0.0 0.00 0.00 0.00 70 1016.2
20260507131204 51 186 0.9 1.7 0.00 0.00 0.00 70 1016.3
20260507130700 50 168 1.7 2.6 0.00 0.00 0.00 71 1016.5
20260507130157 50 191 0.0 0.9 0.00 0.00 0.00 71 1016.4
20260507125656 49 176 0.9 0.9 0.00 0.00 0.00 73 1016.5
20260507125154 48 170 0.0 0.9 0.00 0.00 0.00 74 1016.6
20260507124650 48 267 0.0 0.9 0.00 0.00 0.00 75 1016.5
20260507124147 47 197 0.9 1.7 0.00 0.00 0.00 77 1016.5
20260507123645 46 178 0.0 0.0 0.00 0.00 0.00 81 1016.3
20260507123142 45 158 0.0 0.0 0.00 0.00 0.00 85 1016.4
20260507122637 44 170 0.0 0.0 0.00 0.00 0.00 92 1016.5
20260507122133 42 162 0.0 0.0 0.00 0.00 0.00 94 1016.5
20260507121629 42 159 0.0 0.0 0.00 0.00 0.00 96 1016.9
20260507121126 41 158 0.0 0.0 0.00 0.00 0.00 96 1016.5
20260507120622 40 158 0.0 0.0 0.00 0.00 0.00 96 1016.6
20260507120119 39 158 0.0 0.0 0.00 0.00 0.00 96 1016.3
20260507115615 39 158 0.0 0.0 0.00 0.00 0.00 96 1016.3
20260507115111 39 158 0.0 0.0 0.00 0.00 0.00 96 1016.5
20260507114607 39 158 0.0 0.0 0.00 0.00 0.00 96 1016.2
20260507114104 39 158 0.0 0.0 0.00 0.00 0.00 96 1016.4
20260507113601 39 158 0.0 0.0 0.00 0.00 0.00 96 1016.3
20260507113058 38 158 0.0 0.0 0.00 0.00 0.00 96 1016.5
20260507112556 38 158 0.0 0.0 0.00 0.00 0.00 96 1016.5
20260507112053 38 158 0.0 0.0 0.00 0.00 0.00 96 1016.4
20260507111550 38 158 0.0 0.0 0.00 0.00 0.00 96 1016.5
20260507111046 38 158 0.0 0.0 0.00 0.00 0.00 96 1016.2
20260507110543 38 158 0.0 0.0 0.00 0.00 0.00 96 1016.3
20260507110039 38 158 0.0 0.0 0.00 0.00 0.00 96 1016.1
20260507105536 38 158 0.0 0.0 0.00 0.00 0.00 96 1016.2
20260507105032 38 158 0.0 0.0 0.00 0.00 0.00 96 1016.2
20260507104530 38 158 0.0 0.0 0.00 0.00 0.00 96 1016.2
20260507104026 38 158 0.0 0.0 0.00 0.00 0.00 96 1016.3
20260507103522 38 158 0.0 0.0 0.00 0.00 0.00 96 1016.2
20260507103019 38 158 0.0 0.0 0.00 0.00 0.00 95 1016.2
20260507102516 38 158 0.0 0.0 0.00 0.00 0.00 95 1016.2
20260507102012 38 158 0.0 0.0 0.00 0.00 0.00 95 1016.4
20260507101507 39 158 0.0 0.0 0.00 0.00 0.00 95 1016.2
20260507101004 38 158 0.0 0.0 0.00 0.00 0.00 95 1016.3
20260507100501 39 158 0.0 0.0 0.00 0.00 0.00 95 1016.1
20260507095959 39 158 0.0 0.0 0.00 0.00 0.00 95 1016.2
20260507095457 39 158 0.0 0.0 0.00 0.00 0.00 95 1016.5
20260507094948 39 158 0.0 0.0 0.00 0.00 0.00 95 1016.5
20260507094444 39 158 0.0 0.0 0.00 0.00 0.00 95 1016.5
20260507093941 39 158 0.0 0.0 0.00 0.00 0.00 95 1016.6
20260507093439 39 158 0.0 0.0 0.00 0.00 0.00 95 1016.5
20260507092937 39 158 0.0 0.0 0.00 0.00 0.00 95 1016.3
20260507092433 39 158 0.0 0.0 0.00 0.00 0.00 95 1016.6
20260507091930 39 158 0.0 0.0 0.00 0.00 0.00 95 1016.5
20260507091426 39 158 0.0 0.0 0.00 0.00 0.00 95 1016.4
20260507090922 39 158 0.0 0.0 0.00 0.00 0.00 95 1016.7
20260507090418 39 158 0.0 0.0 0.00 0.00 0.00 94 1016.6
20260507085915 39 158 0.0 0.0 0.00 0.00 0.00 94 1016.6
20260507085412 39 158 0.0 0.0 0.00 0.00 0.00 94 1016.6
20260507084909 39 158 0.0 0.0 0.00 0.00 0.00 94 1016.6
20260507084406 39 158 0.0 0.0 0.00 0.00 0.00 94 1016.5
20260507083903 39 158 0.0 0.0 0.00 0.00 0.00 94 1016.5
20260507083359 39 158 0.0 0.0 0.00 0.00 0.00 94 1016.6
20260507082856 40 158 0.0 0.0 0.00 0.00 0.00 94 1016.6
20260507082351 40 158 0.0 0.0 0.00 0.00 0.00 94 1016.6
20260507081849 40 158 0.0 0.0 0.00 0.00 0.00 94 1016.6
20260507081345 40 158 0.0 0.0 0.00 0.00 0.00 94 1016.8
20260507080842 40 158 0.0 0.0 0.00 0.00 0.00 93 1016.7
20260507080338 40 158 0.0 0.0 0.00 0.00 0.00 93 1016.6
20260507075833 40 158 0.0 0.0 0.00 0.00 0.00 93 1016.6
20260507075330 40 158 0.0 0.0 0.00 0.00 0.00 93 1016.4
20260507074826 40 158 0.0 0.0 0.00 0.00 0.00 93 1016.6
20260507074324 41 158 0.0 0.0 0.00 0.00 0.00 93 1016.3
20260507073821 41 158 0.0 0.0 0.00 0.00 0.00 93 1016.6
20260507073318 41 158 0.0 0.0 0.00 0.00 0.00 92 1016.6
20260507072815 41 158 0.0 0.0 0.00 0.00 0.00 92 1016.8
20260507072312 41 158 0.0 0.0 0.00 0.00 0.00 92 1016.9
20260507071809 42 158 0.0 0.0 0.00 0.00 0.00 92 1016.8
20260507071306 42 158 0.0 0.0 0.00 0.00 0.00 92 1017.0
20260507070802 42 158 0.0 0.0 0.00 0.00 0.00 92 1017.1
20260507070300 42 158 0.0 0.0 0.00 0.00 0.00 91 1017.1
20260507065756 42 158 0.0 0.0 0.00 0.00 0.00 91 1017.0
20260507065253 42 158 0.0 0.0 0.00 0.00 0.00 91 1016.9
20260507064750 42 158 0.0 0.0 0.00 0.00 0.00 91 1017.0
20260507064249 42 158 0.0 0.0 0.00 0.00 0.00 91 1017.0
20260507063746 42 158 0.0 0.0 0.00 0.00 0.00 91 1017.4
20260507063243 42 158 0.0 0.0 0.00 0.00 0.00 91 1017.2
20260507062740 42 158 0.0 0.0 0.00 0.00 0.00 91 1017.2
20260507062237 42 158 0.0 0.0 0.00 0.00 0.00 91 1017.2
20260507061735 42 158 0.0 0.0 0.00 0.00 0.00 91 1017.1
20260507061232 42 158 0.0 0.0 0.00 0.00 0.00 91 1017.2
20260507060731 42 158 0.0 0.0 0.00 0.00 0.00 91 1017.4
20260507060227 42 158 0.0 0.0 0.00 0.00 0.00 91 1017.0
20260507055723 42 159 0.0 0.0 0.00 0.00 0.00 91 1017.4
20260507055219 42 158 0.0 0.0 0.00 0.00 0.00 91 1017.3
20260507054715 42 158 0.0 0.0 0.00 0.00 0.00 91 1017.3
20260507054212 42 158 0.0 0.0 0.00 0.00 0.00 91 1017.3
20260507053710 42 158 0.0 0.0 0.00 0.00 0.00 91 1017.3
20260507053208 42 158 0.0 0.0 0.00 0.00 0.00 91 1017.3
20260507052706 42 158 0.0 0.0 0.00 0.00 0.00 91 1017.2
20260507052202 42 158 0.0 0.0 0.00 0.00 0.00 91 1017.2
20260507051700 42 158 0.0 0.0 0.00 0.00 0.00 90 1017.2
20260507051156 42 158 0.0 0.0 0.00 0.00 0.00 90 1017.3
20260507050653 42 158 0.0 0.0 0.00 0.00 0.00 90 1017.2
20260507050150 42 158 0.0 0.0 0.00 0.00 0.00 90 1017.3
20260507045647 42 158 0.0 0.0 0.00 0.01 0.01 90 1017.3
20260507045143 42 158 0.0 0.0 0.00 0.01 0.01 89 1017.4
20260507044640 42 158 0.0 0.0 0.00 0.01 0.01 89 1017.3
20260507044137 42 158 0.0 0.0 0.00 0.01 0.01 88 1017.3
20260507043633 42 158 0.0 0.0 0.00 0.01 0.01 88 1017.3
20260507043130 42 158 0.0 0.0 0.00 0.01 0.01 88 1017.2
20260507042626 42 158 0.0 0.0 0.00 0.01 0.01 87 1017.2
20260507042121 42 158 0.0 0.0 0.00 0.01 0.01 87 1017.3
20260507041619 43 158 0.0 0.0 0.00 0.01 0.01 86 1017.2
20260507041115 43 159 0.0 0.0 0.00 0.01 0.01 86 1017.3
20260507040612 43 158 0.0 0.0 0.00 0.01 0.01 86 1017.5
20260507040109 43 158 0.0 0.0 0.00 0.01 0.01 85 1017.4
20260507035605 43 158 0.0 0.0 0.00 0.01 0.01 84 1017.9
20260507035101 43 158 0.0 0.0 0.00 0.01 0.01 83 1017.7
20260507034558 43 158 0.0 0.0 0.00 0.01 0.01 82 1017.4
20260507034056 43 158 0.0 0.0 0.00 0.01 0.01 82 1017.4
20260507033554 43 158 0.0 0.0 0.00 0.01 0.01 80 1017.3
20260507033050 44 158 0.0 0.0 0.00 0.01 0.01 79 1017.4
20260507032548 44 158 0.0 0.0 0.00 0.01 0.01 78 1017.4
20260507032044 44 158 0.0 0.0 0.00 0.01 0.01 77 1017.4
20260507031540 44 158 0.0 0.0 0.00 0.01 0.01 76 1017.5
20260507031037 45 158 0.0 0.0 0.00 0.01 0.01 76 1017.5
20260507030534 45 158 0.0 0.0 0.00 0.01 0.01 74 1017.3
20260507030032 46 158 0.0 0.0 0.00 0.01 0.01 73 1017.3
20260507025529 46 158 0.0 0.0 0.00 0.01 0.01 71 1017.3
20260507025026 46 158 0.0 0.0 0.00 0.01 0.01 70 1017.2
20260507024524 46 158 0.0 0.0 0.00 0.01 0.01 68 1017.2
20260507024020 47 157 0.0 0.0 0.00 0.01 0.01 68 1017.0
20260507023516 47 157 0.0 0.0 0.00 0.01 0.01 66 1017.2
20260507023014 48 158 0.0 0.0 0.00 0.01 0.01 65 1017.0
20260507022511 48 158 0.0 0.0 0.00 0.01 0.01 64 1017.4
20260507022006 48 158 0.0 0.0 0.00 0.01 0.01 64 1017.0
20260507021502 48 158 0.0 0.0 0.00 0.01 0.01 62 1017.0
20260507020959 48 158 0.0 0.0 0.00 0.01 0.01 62 1016.8
20260507020456 49 154 0.0 0.0 0.00 0.01 0.01 61 1016.8
20260507015953 49 157 0.0 0.0 0.00 0.01 0.01 60 1016.8
20260507015451 50 163 0.0 0.9 0.00 0.01 0.01 59 1017.0
20260507014942 50 164 0.0 0.0 0.00 0.01 0.01 58 1016.9
20260507014439 51 161 0.0 0.0 0.00 0.01 0.01 57 1017.0
20260507013935 51 155 0.0 0.0 0.00 0.01 0.01 57 1016.6
20260507013432 52 154 0.0 0.0 0.00 0.01 0.01 54 1016.7
20260507012929 53 155 0.0 0.0 0.00 0.01 0.01 53 1016.6
20260507012426 53 157 0.0 0.0 0.00 0.01 0.01 52 1016.4
20260507011922 55 162 0.0 0.0 0.00 0.01 0.01 48 1016.4
20260507011420 56 136 0.0 0.0 0.00 0.01 0.01 39 1016.5
20260507010919 57 136 0.0 0.0 0.00 0.01 0.01 38 1016.4
20260507010415 57 136 0.0 0.0 0.00 0.01 0.01 36 1016.5
20260507005912 57 128 0.9 0.9 0.00 0.01 0.01 35 1016.3
20260507005409 57 140 0.0 0.0 0.00 0.01 0.01 35 1016.4
20260507004905 58 142 0.0 0.0 0.00 0.01 0.01 35 1016.3
20260507004403 58 122 0.0 0.9 0.00 0.01 0.01 34 1016.4
20260507003900 58 113 0.0 0.9 0.00 0.01 0.01 35 1016.0
20260507003355 58 110 0.0 0.0 0.00 0.01 0.01 35 1016.4
20260507002851 59 123 1.7 1.7 0.00 0.01 0.01 35 1016.3
20260507002347 59 37 0.0 0.9 0.00 0.01 0.01 34 1016.1
20260507001844 59 85 1.7 1.7 0.00 0.01 0.01 33 1016.4
20260507001341 59 31 3.5 4.3 0.00 0.01 0.01 33 1016.3
20260507000837 60 80 0.0 0.9 0.00 0.01 0.01 34 1016.3
20260507000333 60 116 0.0 0.0 0.00 0.01 0.01 33 1016.3
20260506235829 60 115 0.0 0.9 0.00 0.01 0.01 33 1016.6
20260506235326 60 63 1.7 1.7 0.00 0.01 0.01 32 1016.4
20260506234822 60 116 0.0 0.9 0.00 0.01 0.01 32 1016.3
20260506234320 60 154 0.0 0.0 0.00 0.01 0.01 32 1016.3
20260506233818 60 151 0.0 0.9 0.00 0.01 0.01 33 1016.3
20260506233313 61 74 2.6 4.3 0.00 0.01 0.01 32 1016.4
20260506232810 62 92 0.0 0.9 0.00 0.01 0.01 31 1016.1
20260506232306 62 120 0.0 0.9 0.00 0.01 0.01 32 1016.1
20260506231803 61 114 0.9 1.7 0.00 0.01 0.01 31 1016.2
20260506231301 62 112 0.0 0.0 0.00 0.01 0.01 32 1016.3
20260506230758 62 79 0.9 0.9 0.00 0.01 0.01 32 1016.3
20260506230255 62 132 0.0 0.0 0.00 0.01 0.01 33 1016.3
20260506225751 62 75 0.9 0.9 0.00 0.01 0.01 31 1016.4
20260506225248 63 75 2.6 4.3 0.00 0.01 0.01 30 1016.3
20260506224744 62 67 0.9 0.9 0.00 0.01 0.01 31 1016.2
20260506224242 62 174 0.9 0.9 0.00 0.01 0.01 31 1016.2
20260506223738 63 130 0.0 0.0 0.00 0.01 0.01 33 1016.3
20260506223234 62 127 0.0 0.9 0.00 0.01 0.01 32 1016.2
20260506222731 62 151 0.0 0.0 0.00 0.01 0.01 32 1016.5
20260506222226 62 120 0.0 0.9 0.00 0.01 0.01 32 1016.3
20260506221725 62 122 0.0 0.0 0.00 0.01 0.01 33 1016.3
20260506221223 63 55 1.7 2.6 0.00 0.01 0.01 33 1016.4
20260506220720 63 147 0.0 0.0 0.00 0.01 0.01 31 1016.5
20260506220214 62 136 0.0 0.0 0.00 0.01 0.01 33 1016.6
20260506215711 62 167 1.7 1.7 0.00 0.01 0.01 32 1016.4
20260506215206 62 95 0.0 0.0 0.00 0.01 0.01 33 1016.5
20260506214703 62 77 0.9 0.9 0.00 0.01 0.01 31 1016.5
20260506214201 62 20 4.3 5.2 0.00 0.01 0.01 31 1016.6
20260506213659 61 77 0.0 0.9 0.00 0.01 0.01 33 1016.5
20260506213156 60 61 0.9 1.7 0.00 0.01 0.01 31 1016.5
20260506212653 62 57 2.6 2.6 0.00 0.01 0.01 31 1016.5
20260506212148 62 72 0.9 0.9 0.00 0.01 0.01 31 1016.8
20260506211644 62 83 2.6 2.6 0.00 0.01 0.01 31 1016.8
20260506211141 62 113 0.0 0.0 0.00 0.01 0.01 31 1016.9
20260506210637 61 49 1.7 1.7 0.00 0.01 0.01 32 1017.2
20260506210134 62 178 0.9 1.7 0.00 0.01 0.01 31 1017.2
20260506205631 62 101 0.0 0.9 0.00 0.01 0.01 32 1017.0
20260506205126 61 136 0.0 0.0 0.00 0.01 0.01 36 1017.1
20260506204624 60 82 0.0 0.9 0.00 0.01 0.01 33 1017.3
20260506204121 60 48 2.6 2.6 0.00 0.01 0.01 34 1017.3
20260506203619 60 116 1.7 1.7 0.00 0.01 0.01 31 1017.5
20260506203115 60 98 2.6 2.6 0.00 0.01 0.01 32 1017.4
20260506202614 61 29 2.6 2.6 0.00 0.01 0.01 31 1017.4
20260506202109 62 304 2.6 2.6 0.00 0.01 0.01 33 1017.5
20260506201607 61 143 0.0 0.9 0.00 0.01 0.01 34 1017.7
20260506201103 60 159 0.0 1.7 0.00 0.01 0.01 33 1017.7
20260506200600 61 142 0.0 0.9 0.00 0.01 0.01 32 1017.7
20260506200056 61 111 1.7 2.6 0.00 0.01 0.01 33 1017.9
20260506195553 60 64 1.7 1.7 0.00 0.01 0.01 33 1018.0
20260506195049 60 74 0.9 1.7 0.00 0.01 0.01 31 1018.1
20260506194548 60 82 1.7 1.7 0.00 0.01 0.01 33 1017.7
20260506194043 60 64 2.6 4.3 0.00 0.01 0.01 31 1017.9
20260506193541 60 78 0.9 1.7 0.00 0.01 0.01 35 1017.7
20260506193038 60 205 0.9 0.9 0.00 0.01 0.01 33 1017.9
20260506192535 60 87 0.9 1.7 0.00 0.01 0.01 31 1018.0
20260506192031 60 56 1.7 2.6 0.00 0.01 0.01 35 1018.0
20260506191528 60 129 0.0 0.0 0.00 0.01 0.01 36 1018.1
20260506191024 59 136 0.0 0.0 0.00 0.01 0.01 32 1017.9
20260506190521 59 120 0.0 0.9 0.00 0.01 0.01 31 1018.1
20260506190019 59 43 1.7 1.7 0.00 0.01 0.01 34 1017.9
20260506185515 59 2 5.2 6.1 0.00 0.01 0.01 34 1018.2
20260506185012 58 103 0.0 0.9 0.00 0.01 0.01 37 1018.2
20260506184509 59 93 0.9 0.9 0.00 0.01 0.01 34 1018.2
20260506184006 58 116 0.0 0.0 0.00 0.01 0.01 38 1018.2
20260506183502 58 163 0.0 0.9 0.00 0.01 0.01 37 1018.2
20260506182959 57 118 1.7 1.7 0.00 0.01 0.01 36 1018.2
20260506182456 56 59 0.9 1.7 0.00 0.01 0.01 36 1018.2
20260506181953 57 103 0.0 0.9 0.00 0.01 0.01 38 1018.4
20260506181451 57 73 0.9 1.7 0.00 0.01 0.01 37 1018.2
20260506180948 57 214 0.0 0.9 0.00 0.01 0.01 36 1018.6
20260506180444 57 102 0.9 0.9 0.00 0.01 0.01 37 1018.6
20260506175941 57 66 0.0 0.9 0.00 0.01 0.01 36 1018.4
20260506175438 57 304 0.9 4.3 0.00 0.01 0.01 38 1018.2
20260506174934 56 107 0.9 0.9 0.00 0.01 0.01 37 1018.5
20260506174432 56 96 1.7 1.7 0.00 0.01 0.01 36 1018.7
20260506173929 56 66 2.6 6.1 0.00 0.01 0.01 37 1018.6
20260506173426 56 127 0.9 1.7 0.00 0.01 0.01 37 1018.6
20260506172923 57 354 0.9 0.9 0.00 0.01 0.01 36 1018.5
20260506172420 57 121 0.9 0.9 0.00 0.01 0.01 37 1018.5
20260506171917 57 183 0.9 1.7 0.00 0.01 0.01 36 1018.7
20260506171414 57 135 0.0 0.0 0.00 0.01 0.01 37 1018.6
20260506170912 57 44 1.7 1.7 0.00 0.01 0.01 36 1018.6
20260506170407 56 126 0.0 0.9 0.00 0.01 0.01 38 1018.5
20260506165901 56 110 0.9 0.9 0.00 0.01 0.01 38 1018.7
20260506165359 56 119 0.9 1.7 0.00 0.01 0.01 37 1018.3
20260506164855 56 109 0.0 0.0 0.00 0.01 0.01 39 1018.7
20260506164351 56 90 0.0 0.9 0.00 0.01 0.01 39 1018.5
20260506163849 56 110 0.0 0.9 0.00 0.01 0.01 39 1018.7
20260506163343 56 153 0.0 0.0 0.00 0.01 0.01 40 1018.5
20260506162839 56 84 0.0 0.9 0.00 0.01 0.01 40 1018.3
20260506162337 56 170 0.0 0.0 0.00 0.01 0.01 41 1018.5
20260506161834 56 120 0.0 0.9 0.00 0.01 0.01 39 1018.4
20260506161332 56 84 1.7 2.6 0.00 0.01 0.01 41 1018.3
20260506160829 56 149 0.0 0.0 0.00 0.01 0.01 42 1018.5
20260506160325 57 57 0.9 0.9 0.00 0.01 0.01 38 1018.2